SCP
0 0 0 0 0 0 0 0 0 0 0 0 0 0 0 0 0 0 0 0 0 0 0 0 0 0 0 0 0 0 0 0 0 0 0 0 0 1
0 0 0 0 0 0 0 0 0 0 0 0 0 0 0 0 0 0 0 0 0 0 0 0 0 0 0 0 0 0 0 0 0 0 0 0 0 0
0 0 0 0 0 0 0 0 0 0 0 0 0 0 0 0 0 0 0 0 0 0 0 0 0 0 0 0 0 0 0 0 0 0 0 0 0 0
0 0 0 0 0 0 0 0 0 0 0 0 0 0 0 0 0 0 0 0 0 0 0 0 0 0 0 0 0 0 0 0 0 0 0 0 0 0
0 0 0 0 0 0 0 0 0 0 0 0 0 0 0 0 0 0 0 0 0 0 0 0 0 0 0 0 0 0 0 0 0 0 0 0 0 0
0 0 0 0 0 0 0 0 0 0 0 0 0 0 0 0 0 0 0 0 0 0 0 0 0 0 0 0 0 0 0 0 0 0 0 0 0 0
0 0 0 0 0 0 0 0 0 0 0 0 0 0 0 0 0 0 0 0 0 0 0 0 0 0 0 0 0 0 0 0 0 0 0 -0 -0 0
0 0 0 0 0 0 0 0 0 0 0 0 0 0 0 0 0 0 0 0 0 0 0 0 0 0 0 0 0 0 0 0 0 0 0 0 0 0
0 0 0 0 0 0 0 0 0 0 0 0 0 0 0 0 0 0 0 0 0 0 0 0 0 0 0 0 0 0 0 0 0 0 0 0 0 0
0 0 0 0 0 0 0 0 0 0 0 0 0 0 0 0 0 0 0 0 0 0 0 0 0 0 0 0 0 0 0 0 0 0 0 0 0 0
0 0 0 0 0 0 0 0 0 0 0 0 0 0 0 0 0 0 0 0 0 0 0 0 0 0 0 0 0 0 0 0 0 0 0 0 0 0
0 0 0 0 0 0 0 0 0 0 0 0 0 0 0 0 0 0 0 0 0 0 0 0 0 0 0 0 0 0 0 0 0 0 0 0 0 0
0 0 0 0 0 0 0 0 0 0 0 0 0 0 0 0 0 0 0 0 0 0 0 0 0 0 0 0 0 0 0 0 0 0 0 0 0 0
0 0 0 0 0 0 0 0 0 0 0 0 0 0 0 0 0 0 0 0 0 0 0 0 0 0 0 0 0 0 0 0 0 0 0 0 0 0
0 0 0 0 0 0 0 0 0 0 0 0 0 0 0 0 0 0 0 0 0 0 0 0 0 0 0 0 0 0 0 0 0 0 0 0 0 0
0 0 0 0 0 0 0 0 0 0 0 0 0 0 0 0 0 0 0 0 0 0 0 0 0 0 0 0 0 0 0 0 0 0 0 0 0 0
0 0 0 0 0 0 0 0 0 0 0 0 0 0 0 0 0 0 0 0 0 0 0 0 0 0 0 0 0 0 0 0 0 0 0 0 0 0
0 0 0 0 0 0 0 0 0 1 1 0 0 0 0 0 0 0 0 0 0 0 0 0 0 0 0 0 0 0 0 0 0 0 0 0 0 0
0 0 0 0 0 0 0 0 0 1 1 1 0 0 0 0 0 0 0 0 0 0 0 0 0 0 0 0 0 0 0 0 0 0 0 0 0 0
0 0 0 0 0 0 0 0 0 0 0 0 0 0 0 0 0 0 0 0 0 0 0 0 0 0 0 0 0 0 0 0 0 0 0 0 0 0
0 0 0 0 0 0 0 0 0 0 0 0 0 0 0 0 0 0 0 0 0 0 0 0 0 0 0 0 0 0 0 0 0 0 0 0 0 0
0 0 0 0 0 0 0 0 0 0 0 0 0 0 0 0 0 0 0 0 0 0 0 0 0 0 0 0 0 0 0 0 0 0 0 0 0 0
0 0 0 0 0 0 0 0 0 0 0 0 0 0 0 0 0 0 0 0 0 0 0 0 0 0 0 0 0 0 0 0 0 0 0 0 0 0
Wind_Speed
4 5 5 4 4 4 5 6 7 8 7 3 3 3 4 4 2 6 7 2 4 7 8 8 9 9 9 10 11 12 13 14 15 16 17 18 18 20
4 4 5 5 4 5 5 5 6 8 8 6 5 6 5 7 5 7 8 5 10 11 10 9 9 10 10 11 11 11 12 14 15 16 17 17 17 17
6 6 6 6 6 5 5 6 6 7 8 8 7 6 6 9 8 8 9 9 9 11 10 9 10 10 11 11 12 12 12 13 14 15 16 17 17 17
7 7 7 6 7 7 6 7 7 7 9 10 9 8 8 8 9 9 10 9 9 7 10 10 11 12 12 12 12 12 13 13 13 14 15 16 17 17
8 8 8 8 8 7 7 8 7 7 7 9 10 7 8 8 8 9 11 9 11 9 11 14 14 14 13 13 13 13 13 13 13 13 14 14 15 16
8 9 9 9 10 9 8 9 9 9 9 9 10 8 8 8 7 9 9 8 8 9 8 8 10 13 15 14 14 14 14 14 14 14 14 14 15 15
9 10 10 9 8 9 9 8 8 9 9 9 9 9 8 7 7 8 8 8 8 8 9 9 9 10 11 15 16 15 14 14 14 14 14 14 15 15
10 10 10 11 12 14 14 13 12 12 11 10 10 10 10 10 8 9 9 10 10 7 7 9 9 9 9 10 8 12 13 13 13 14 14 14 15 15
11 10 10 9 9 12 14 17 17 18 17 14 14 14 12 10 10 11 10 11 11 9 9 11 10 10 10 9 7 9 11 11 12 13 14 14 14 15
13 13 12 12 11 11 12 13 13 14 15 15 14 15 14 11 10 11 12 12 13 11 11 12 11 11 10 9 9 12 12 13 13 13 13 14 14 14
13 13 13 14 11 10 12 14 14 13 13 16 16 15 13 12 10 11 12 12 12 11 9 10 11 10 10 10 9 13 13 13 14 14 13 13 13 13
11 12 14 15 12 10 12 13 15 14 13 11 12 15 16 16 16 15 14 13 12 12 9 9 10 10 10 10 9 7 10 13 15 15 14 13 12 10
10 10 10 12 15 14 13 14 15 13 13 13 12 12 12 11 12 13 13 13 13 12 10 8 9 10 10 10 9 8 8 8 9 11 14 15 14 12
12 12 10 5 11 13 13 14 13 11 12 12 12 12 11 11 10 11 12 13 13 14 13 12 10 10 11 12 11 9 8 8 8 8 8 10 14 15
12 13 13 9 9 12 17 17 13 12 13 13 13 12 11 11 10 9 11 12 14 15 14 15 14 12 12 13 12 11 9 8 8 9 8 8 8 8
12 12 14 16 15 15 13 12 13 13 13 13 12 12 11 10 10 10 10 10 11 12 14 15 15 15 14 14 13 12 11 10 8 8 8 8 8 8
9 10 12 12 12 12 12 12 11 11 13 13 12 11 11 11 11 10 10 10 11 12 11 10 12 13 15 13 13 13 12 11 10 8 8 9 9 8
9 13 13 13 13 12 12 11 11 11 12 12 11 11 11 11 10 10 10 10 11 12 11 10 9 9 10 12 13 15 13 12 10 9 9 10 10 8
11 13 14 13 13 12 12 11 11 11 9 10 11 11 11 10 10 10 10 11 11 11 11 10 9 10 12 13 13 16 14 12 10 10 10 10 10 8
11 12 12 12 12 12 12 11 11 10 9 10 11 11 11 10 10 11 11 12 11 11 11 11 10 11 13 13 11 9 15 14 11 11 10 9 8 6
11 11 11 11 11 11 11 11 11 10 11 10 10 11 10 10 10 11 11 12 12 11 12 12 11 12 11 9 11 12 10 14 13 10 9 8 8 7
11 11 11 11 11 11 11 10 10 10 11 10 10 10 10 10 11 12 11 11 11 11 13 11 10 9 10 11 13 13 11 9 11 11 10 9 7 7
11 11 11 11 11 10 10 11 12 10 10 10 9 9 10 10 10 10 11 11 11 11 11 10 9 9 10 11 12 12 13 11 8 8 9 10 11 8
Wind_Direction
247 232 255 270 265 275 278 282 290 295 296 289 275 284 279 287 298 283 283 228 251 267 266 265 264 262 258 253 248 244 240 235 233 235 236 234 233 232
258 274 269 268 268 265 269 270 272 282 291 299 290 289 308 301 266 276 277 251 242 244 250 256 260 261 259 256 253 248 244 240 234 231 231 230 229 231
245 243 248 269 273 274 265 264 265 269 278 285 287 284 276 278 288 284 276 271 260 214 224 245 254 256 255 255 254 251 247 244 241 236 232 229 228 229
249 251 252 250 249 263 270 269 268 270 271 282 287 284 273 270 271 275 276 272 276 225 210 233 246 250 251 251 251 250 248 245 243 240 237 233 231 230
252 252 252 254 253 257 259 265 267 264 265 274 277 280 277 272 275 269 269 267 272 257 217 223 233 241 246 248 248 247 245 243 242 240 239 237 235 232
251 252 254 254 253 255 254 254 262 270 267 266 272 274 271 268 267 271 271 259 262 273 271 258 235 228 236 239 241 242 241 240 240 239 238 237 236 234
251 251 252 254 264 261 267 266 264 263 268 268 271 273 273 276 274 276 278 281 270 266 268 266 253 245 232 227 230 234 235 236 238 239 238 237 236 235
256 256 255 237 235 231 244 256 264 264 269 276 276 277 279 278 277 279 281 279 278 272 271 271 270 267 262 257 228 210 220 230 235 238 239 238 236 236
259 259 260 259 238 245 233 227 239 242 247 260 271 275 279 276 280 277 272 277 282 289 282 274 271 268 265 260 202 203 219 230 237 240 239 238 237 237
255 255 257 262 258 254 259 256 252 243 233 234 250 261 265 274 273 271 276 273 266 259 257 265 268 268 268 265 216 205 221 231 237 241 241 240 237 237
253 253 254 256 250 235 252 261 263 263 249 233 239 251 263 269 267 268 266 266 267 265 249 254 264 268 268 265 244 205 215 227 232 235 238 240 238 238
255 253 245 243 251 224 245 256 260 263 269 261 236 239 247 246 233 241 255 261 265 268 262 255 261 266 269 263 260 236 223 223 226 230 231 232 229 235
264 262 258 217 222 225 233 252 260 269 272 269 264 255 246 245 239 230 235 249 258 261 264 260 263 265 265 270 265 257 253 250 233 227 222 221 217 221
267 268 270 228 214 222 228 243 250 257 261 263 261 259 256 253 249 245 239 241 249 259 268 270 270 268 271 271 269 263 254 251 251 253 247 211 211 217
264 271 280 276 245 239 235 235 235 240 247 253 257 258 258 258 259 253 248 245 248 251 253 251 252 256 258 263 268 268 266 258 251 249 246 241 233 218
254 262 251 247 244 257 260 232 229 239 246 252 256 259 259 255 248 249 251 247 247 248 241 241 244 250 253 256 260 264 262 261 257 252 251 249 242 236
304 278 270 264 255 248 247 247 243 239 238 246 252 255 255 253 251 248 247 251 253 257 256 243 235 235 246 255 258 257 257 256 255 251 248 252 248 242
277 269 267 264 263 262 261 258 251 245 245 246 248 251 253 254 253 248 246 245 249 253 254 252 247 240 241 243 239 252 255 255 254 247 241 247 250 241
251 262 264 265 266 266 265 264 264 259 253 250 250 249 250 252 252 250 246 243 245 250 254 253 246 244 247 251 239 219 240 249 248 246 240 241 249 248
253 263 267 270 271 270 269 268 268 267 260 253 251 251 249 248 249 249 247 244 245 247 248 246 243 242 246 258 268 250 218 238 245 245 245 244 248 249
274 273 273 273 272 271 269 269 268 266 262 258 256 255 253 250 248 248 247 242 244 248 248 247 245 242 250 258 260 258 243 219 234 246 248 245 244 240
283 281 279 278 276 274 270 266 264 261 258 254 252 252 250 248 248 247 247 245 240 242 249 253 251 242 239 242 249 255 256 241 220 228 245 251 248 244
287 285 283 280 275 272 269 264 260 257 255 254 250 246 246 246 247 247 246 246 246 246 248 251 249 242 238 241 248 253 254 248 238 224 225 219 225 239